Flag for U.S.A. Weather past 2 weeks in Mesquite, Texas, U.S.A.

Now
76 °F

Clear.


Feels Like: 77 °F
Forecast: 74 / 93 °F
Wind: 3 mph from South

Location: Mesquite Metro Airport

Current Time: Sep 5, 2015 at 5:25:12 AM

Latest Report: Sep 5, 2015 at 4:55 AM


Visibility: 10 mi

Pressure: 29.98 "Hg

Humidity: 85%

Dew point: 71 °F

Location of MesquiteLocation

Historic Weather in Mesquite — Graph

°F

Mesquite temperature yesterday

Maximum temperature yesterday: 93 °F (at 2:50 PM)
Minimum temperature yesterday: 73 °F (at 6:50 AM)
Average temperature yesterday: 82 °F

Past Weeks' High & Low Weather Summary

 TemperatureHumidityPressure
High100 °F (Aug 21, 7:50 PM)100% (Aug 21, 6:50 AM)31.17 "Hg (Aug 21, 6:50 AM)
Low65 °F (Aug 27, 6:15 AM)17% (Aug 26, 4:50 PM)29.85 "Hg (Aug 22, 6:50 PM)
Average79 °F70%30.00 "Hg
* Reported Aug 21 4:15 AM — Sep 5 4:15 AM, Mesquite, Weather by CustomWeather, © 2015

Note: Actual official high and low records may vary slightly from our data, if they occured in-between our weather recording intervals... More about our weather records

Advertising

Mesquite weather history for previous 24 hours

 ConditionsComfort  
Time TempWeatherWind HumidityBarometerVisibility
4:15 AM
Sat, Sep 5
76 °FClear.3 mph83%29.97 "Hg10 mi
3:55 AM77 °FClear.No wind83%29.97 "Hg10 mi
3:35 AM77 °FClear.3 mph82%29.97 "Hg10 mi
3:15 AM77 °FClear.5 mph81%29.96 "Hg10 mi
2:55 AM78 °FClear.3 mph80%29.96 "Hg10 mi
2:35 AM78 °FClear.3 mph80%29.95 "Hg10 mi
2:15 AM78 °FClear.3 mph78%29.95 "Hg10 mi
1:55 AM79 °FClear.5 mph76%29.95 "Hg10 mi
1:35 AM80 °FClear.6 mph74%29.95 "Hg10 mi
1:15 AM79 °FClear.5 mph76%29.94 "Hg10 mi
12:55 AM81 °FClear.5 mph70%29.94 "Hg10 mi
12:35 AM81 °FClear.5 mph67%29.94 "Hg10 mi
12:15 AM82 °FClear.7 mph66%29.94 "Hg10 mi
11:55 PM
Fri, Sep 4
82 °FClear.7 mph64%29.94 "Hg10 mi
11:35 PM83 °FClear.8 mph63%29.94 "Hg10 mi
10:55 PM83 °FClear.7 mph61%29.94 "Hg10 mi
10:35 PM84 °FClear.5 mph60%29.94 "Hg10 mi
10:15 PM84 °FClear.6 mph59%29.94 "Hg10 mi
9:55 PM85 °FClear.6 mph58%29.94 "Hg10 mi
9:35 PM85 °FClear.6 mph57%29.93 "Hg10 mi
9:15 PM86 °FClear.8 mph55%29.92 "Hg10 mi
8:55 PM86 °FClear.7 mph52%29.92 "Hg10 mi
8:35 PM87 °FSunny.6 mph50%29.91 "Hg10 mi
8:15 PM88 °FSunny.5 mph47%29.91 "Hg10 mi
7:50 PM90 °FSunny.5 mph43%29.91 "Hg10 mi
6:50 PM91 °FSunny.7 mph41%29.90 "Hg10 mi
5:50 PM93 °FScattered clouds.5 mph41%29.90 "Hg10 mi
4:50 PM93 °FScattered clouds.5 mph39%29.91 "Hg10 mi
3:50 PM93 °FScattered clouds.7 mph39%29.91 "Hg10 mi
2:50 PM93 °FPartly sunny.5 mph39%29.93 "Hg10 mi
1:50 PM91 °FBroken clouds.9 mph41%29.95 "Hg10 mi
9:50 AM86 °FPartly sunny.7 mph62%29.98 "Hg10 mi
8:50 AM79 °FSunny.7 mph84%29.97 "Hg10 mi
7:50 AM75 °FClear.5 mph89%29.96 "Hg10 mi
6:50 AM73 °FClear.5 mph89%29.94 "Hg10 mi
6:15 AM74 °FClear.5 mph87%29.93 "Hg10 mi
5:55 AM74 °FClear.5 mph87%29.93 "Hg10 mi
5:35 AM74 °FClear.5 mph87%29.93 "Hg10 mi
5:15 AM75 °FClear.3 mph85%29.93 "Hg10 mi
Weather by CustomWeather, © 2015

See weather overviewHow to use our weather pages